Wind_Speed
14 15 15 15 16 16 16 16 16 16 15 15 14 14 14 13 13 13 13 12 12 12 11 11 11 11 11 11 10 10 10 9 9 9 9 8 8 7 7 7 6 6 6
15 15 15 16 16 16 16 16 16 16 16 16 15 15 15 14 14 14 13 13 13 13 13 12 12 12 12 12 12 11 11 10 10 11 11 10 10 9 9 8 7 8 7
15 16 16 16 17 17 17 17 17 17 17 17 16 16 15 15 15 15 14 14 13 13 13 13 13 13 13 13 13 13 13 13 12 12 12 12 11 11 10 10 9 9 8
17 17 16 16 17 18 18 18 17 17 18 18 17 17 16 16 16 16 15 15 14 14 14 14 14 14 14 14 14 14 14 14 14 14 13 13 13 12 12 11 11 11 10
18 18 18 18 18 19 20 19 18 18 18 19 18 18 18 17 17 17 16 16 16 15 15 14 14 14 14 14 15 15 15 15 15 15 15 14 14 14 14 13 13 12 12
18 19 19 20 19 20 21 21 20 19 20 19 19 19 19 19 19 18 18 18 18 17 17 17 16 16 15 15 15 16 16 16 16 16 16 16 15 15 15 14 14 14 13
21 21 20 21 21 21 22 22 22 21 22 21 20 20 20 20 20 20 20 20 19 19 19 19 18 18 18 17 17 17 17 17 17 17 17 17 16 16 16 16 16 16 16
23 23 23 22 23 23 23 23 23 22 23 23 22 21 21 22 22 22 22 22 22 22 21 21 20 20 20 20 19 19 18 18 19 19 19 18 19 18 18 18 18 18 18
24 24 24 24 24 24 23 24 24 24 24 24 24 24 23 23 24 24 24 24 24 24 24 23 23 23 22 22 22 21 21 21 21 20 20 20 20 20 20 20 20 20 20
25 26 26 26 26 26 25 25 24 25 25 25 25 25 25 24 24 25 25 25 26 26 26 26 25 25 24 24 24 24 24 23 23 23 22 22 22 22 22 22 22 22 22
26 26 27 26 26 27 27 27 26 26 26 26 26 27 27 26 26 25 25 26 26 27 27 27 28 27 27 26 26 26 26 26 26 25 25 25 24 24 24 24 23 23 24
27 27 27 27 27 27 28 28 28 28 27 27 27 27 27 27 27 27 27 28 28 28 29 29 29 30 29 29 29 29 28 28 28 28 28 28 28 27 27 27 27 26 26
27 28 28 28 28 28 29 29 28 29 29 29 29 28 28 28 29 29 29 29 30 30 31 31 31 32 32 32 32 32 32 32 32 31 31 31 31 30 30 30 30 29 29
29 29 29 29 30 29 30 30 29 29 30 30 30 31 30 30 30 31 31 31 32 32 32 33 33 34 34 34 34 34 35 35 35 35 34 34 34 33 33 33 33 32 32
31 31 31 31 31 31 31 31 31 31 31 31 32 32 33 32 32 32 33 33 34 34 34 34 35 35 35 36 36 36 37 37 37 38 38 37 37 37 36 36 35 35 34
32 33 33 33 33 33 33 33 33 33 34 33 34 34 34 34 34 34 34 34 35 35 36 37 37 37 38 38 39 39 39 40 40 40 40 40 40 39 39 39 38 38 37
35 35 35 35 35 35 35 35 35 36 36 36 36 36 36 36 36 36 35 36 36 37 37 38 39 39 40 41 41 41 42 42 42 42 42 42 42 42 41 41 41 41 41
37 37 37 37 37 37 37 37 37 38 38 37 38 38 38 38 38 37 37 38 38 39 39 40 40 41 41 42 43 44 44 44 44 44 44 44 44 44 44 43 43 43 43
39 39 39 39 39 40 39 39 39 40 40 40 39 40 40 40 39 39 39 40 40 40 41 42 42 42 43 43 44 44 45 45 45 45 45 45 45 45 46 46 46 46 45
40 40 40 41 41 42 42 42 42 42 42 42 42 42 42 42 42 42 42 42 42 43 43 43 44 44 45 44 44 45 45 46 46 46 46 46 47 47 47 48 48 48 48
42 42 42 42 42 43 43 43 43 43 43 44 44 45 44 44 45 44 43 43 44 44 45 45 46 46 46 47 47 47 47 47 47 47 47 48 48 48 49 49 50 50 50
43 43 43 44 44 44 44 44 44 45 45 46 46 46 47 47 46 45 46 45 46 46 47 47 48 48 48 49 49 49 49 49 49 49 49 49 49 49 50 51 51 52 52
44 45 45 45 45 46 46 46 46 46 47 47 48 48 48 48 48 47 47 47 48 48 48 49 49 49 49 50 50 50 50 50 51 50 51 52 52 52 52 52 53 53 54
45 46 46 46 47 46 46 47 47 47 47 48 48 48 49 49 48 49 48 49 49 50 50 50 50 50 51 51 52 52 52 52 53 53 53 53 54 54 55 55 56 56 56
46 47 47 47 47 46 47 47 48 49 49 49 49 49 50 50 50 50 50 49 50 50 51 51 51 51 52 52 52 52 52 53 53 55 54 54 55 56 57 57 58 59 59
45 46 47 47 47 47 47 47 48 49 49 49 49 49 50 51 51 51 50 51 51 51 51 52 51 52 52 53 53 53 53 53 53 54 55 55 56 56 57 58 59 60 61
Wind_Direction
260 257 254 253 253 252 253 254 255 254 251 249 249 247 245 244 245 246 246 244 242 241 242 242 240 239 240 239 236 235 233 231 230 229 228 229 230 227 224 222 223 228 231
262 258 256 254 253 253 252 253 254 254 252 251 251 249 247 246 245 244 245 246 244 244 243 243 242 240 240 239 237 237 237 235 232 231 233 233 233 232 231 230 231 233 235
265 260 257 255 253 252 251 251 253 254 253 251 251 249 248 248 247 245 245 246 247 247 246 245 244 243 240 239 239 240 240 238 236 235 235 236 238 237 236 236 236 238 241
265 262 258 257 255 253 251 251 252 251 251 250 250 248 246 246 247 247 246 246 247 247 248 248 247 245 243 244 242 241 241 240 240 240 240 240 241 242 241 241 241 244 244
265 262 258 258 257 256 253 251 251 249 247 248 247 247 246 246 247 247 247 247 246 247 248 249 250 248 246 245 244 243 242 242 242 243 242 242 243 244 244 243 243 245 245
264 262 259 258 258 257 254 251 251 249 248 247 246 248 248 247 247 248 247 249 248 249 249 251 252 250 248 246 245 245 244 244 244 244 244 245 245 247 246 246 246 246 246
265 265 262 258 257 256 255 250 250 250 250 251 250 249 250 250 251 251 250 249 249 250 251 252 253 252 250 248 247 247 247 247 246 245 245 247 247 249 249 248 249 249 249
265 264 264 261 257 256 255 253 252 252 252 252 252 253 252 252 254 255 253 251 251 251 251 252 253 253 252 250 249 249 250 250 249 248 249 249 249 250 251 251 251 252 252
266 264 263 260 258 256 256 256 254 254 254 254 254 255 255 254 255 256 255 253 253 253 253 252 253 254 253 253 252 252 252 252 252 253 253 252 253 254 255 255 254 254 253
266 264 262 260 258 256 256 255 256 257 256 255 256 257 257 256 256 257 257 256 255 255 254 253 253 254 254 254 254 254 254 253 253 253 254 254 255 256 257 258 257 256 255
265 263 261 260 258 257 256 256 256 257 258 257 257 257 257 257 257 258 258 258 257 256 255 255 254 254 255 255 255 255 255 255 255 254 255 255 256 256 257 257 257 257 258
264 262 261 260 258 256 255 256 257 257 257 258 258 258 258 259 259 260 260 260 260 258 257 257 257 256 255 256 256 256 256 255 255 255 255 256 256 257 257 258 258 258 258
262 261 261 260 258 257 256 255 256 257 257 258 258 259 259 260 261 261 262 261 261 259 259 260 259 258 258 258 258 258 258 257 257 256 256 256 256 257 258 259 260 259 259
262 261 260 260 259 258 257 256 257 258 257 257 259 259 260 260 260 262 262 262 262 262 262 261 261 260 260 260 259 259 259 258 258 258 258 258 258 257 257 259 260 260 259
262 261 261 260 259 258 257 257 258 259 259 260 260 261 261 261 262 263 263 263 263 263 263 262 261 261 261 261 261 260 260 259 259 259 259 259 259 258 258 258 259 260 260
262 261 261 260 259 259 258 259 259 260 260 262 262 263 262 263 263 265 265 265 265 264 264 263 262 262 261 261 261 261 261 260 259 259 259 259 259 259 259 258 259 259 260
261 261 260 260 259 259 259 260 260 261 262 263 263 263 263 264 265 266 266 266 266 265 265 265 264 264 263 263 262 261 261 261 260 259 259 259 259 259 259 258 259 259 260
262 261 261 260 259 259 260 261 262 262 262 263 263 263 264 265 265 266 267 267 267 267 266 266 266 265 265 265 264 263 261 260 260 260 259 259 259 259 259 259 259 260 260
261 261 261 260 260 260 262 263 262 262 263 263 264 264 264 265 266 267 267 267 267 267 267 267 267 267 267 266 265 263 262 261 261 260 260 259 259 259 260 260 260 260 261
261 261 262 262 261 261 262 263 262 263 263 263 263 264 265 265 266 267 269 269 268 268 269 268 268 268 267 265 264 263 262 261 261 261 260 260 260 260 260 261 261 261 261
262 262 261 261 261 262 263 263 264 264 263 263 264 264 265 266 267 268 269 270 269 269 270 270 270 269 267 265 265 264 263 262 260 260 260 260 260 260 261 262 262 261 262
261 262 262 261 262 263 264 263 264 264 264 264 264 264 265 266 268 268 269 269 270 270 271 271 271 269 268 267 266 265 264 263 261 260 260 259 260 260 261 262 262 262 262
261 261 261 261 262 263 265 265 265 265 265 265 265 264 265 266 267 269 269 269 270 270 271 272 271 269 268 268 267 266 265 263 262 260 261 260 261 261 262 262 262 262 262
261 261 261 261 262 263 265 266 266 266 265 266 265 265 265 265 267 268 269 270 271 271 270 271 271 270 269 268 268 267 266 265 263 261 260 261 262 262 262 263 262 262 263
262 261 261 262 263 264 264 265 265 265 265 265 265 265 265 265 267 268 269 271 272 271 271 270 270 270 270 269 269 268 267 266 265 263 261 262 262 263 263 263 263 263 263
262 261 262 263 263 263 264 264 264 265 265 265 265 266 266 266 267 267 269 270 271 271 271 271 271 270 270 270 269 269 267 267 266 265 264 264 264 264 264 264 264 264 264
Height
5811 5812 5812 5813 5815 5815 5816 5817 5817 5818 5819 5820 5821 5822 5823 5824 5825 5826 5827 5827 5828 5829 5830 5831 5831 5832 5834 5834 5835 5836 5837 5838 5839 5840 5841 5842 5843 5844 5845 5845 5846 5847 5848
5808 5809 5809 5810 5811 5812 5813 5814 5815 5815 5816 5817 5818 5819 5820 5821 5822 5823 5824 5825 5826 5827 5828 5829 5829 5830 5831 5832 5833 5834 5835 5836 5837 5839 5840 5841 5842 5843 5843 5844 5845 5846 5847
5805 5806 5806 5807 5808 5809 5810 5811 5812 5813 5813 5814 5815 5816 5818 5819 5820 5821 5822 5823 5824 5825 5826 5826 5827 5828 5829 5830 5831 5832 5833 5834 5836 5837 5838 5839 5840 5841 5842 5843 5844 5845 5845
5802 5803 5803 5804 5805 5806 5807 5808 5809 5810 5810 5811 5812 5813 5815 5816 5817 5818 5819 5820 5821 5822 5823 5824 5825 5826 5827 5828 5829 5830 5831 5832 5833 5835 5836 5837 5838 5839 5840 5841 5842 5843 5844
5799 5800 5800 5801 5802 5802 5803 5804 5805 5806 5807 5808 5809 5810 5811 5812 5814 5815 5816 5817 5818 5819 5820 5821 5822 5823 5824 5825 5826 5827 5828 5829 5831 5832 5833 5835 5836 5837 5838 5839 5840 5841 5842
5796 5796 5797 5798 5798 5799 5800 5801 5802 5803 5803 5804 5806 5807 5808 5809 5810 5811 5813 5814 5815 5816 5817 5818 5819 5820 5821 5822 5823 5824 5825 5826 5828 5829 5831 5832 5833 5834 5835 5836 5837 5838 5839
5792 5792 5793 5793 5794 5795 5796 5797 5798 5799 5800 5801 5802 5803 5804 5805 5806 5808 5809 5810 5811 5812 5813 5814 5815 5816 5817 5818 5820 5821 5822 5823 5825 5826 5827 5829 5830 5831 5832 5833 5834 5835 5836
5787 5788 5788 5789 5790 5791 5791 5792 5793 5795 5796 5797 5798 5799 5800 5801 5802 5804 5805 5806 5807 5808 5809 5810 5812 5813 5814 5815 5816 5817 5819 5820 5821 5822 5824 5825 5826 5827 5829 5830 5831 5832 5833
5782 5782 5783 5783 5784 5785 5787 5788 5789 5790 5791 5792 5793 5794 5795 5797 5798 5799 5800 5801 5803 5804 5805 5806 5807 5808 5809 5811 5812 5813 5815 5816 5817 5818 5820 5821 5823 5824 5825 5826 5827 5828 5829
5776 5776 5777 5778 5779 5780 5781 5782 5783 5784 5786 5787 5789 5790 5791 5792 5793 5794 5795 5796 5798 5799 5800 5801 5802 5803 5804 5806 5807 5809 5810 5812 5813 5814 5816 5817 5818 5819 5821 5822 5823 5824 5825
5771 5771 5771 5772 5773 5774 5775 5777 5778 5779 5781 5782 5783 5784 5786 5787 5788 5789 5790 5791 5792 5793 5794 5796 5797 5798 5799 5800 5802 5803 5805 5806 5808 5809 5811 5812 5813 5815 5816 5817 5818 5819 5820
5765 5765 5765 5766 5767 5768 5769 5771 5772 5774 5775 5776 5777 5779 5780 5781 5782 5783 5784 5785 5786 5787 5788 5789 5791 5792 5793 5794 5796 5797 5799 5800 5802 5804 5805 5806 5808 5809 5810 5811 5813 5814 5815
5759 5759 5759 5760 5761 5762 5764 5765 5766 5768 5769 5770 5772 5773 5774 5775 5776 5777 5778 5779 5780 5781 5782 5783 5784 5785 5787 5788 5790 5791 5792 5794 5795 5797 5798 5800 5801 5803 5804 5805 5807 5808 5809
5753 5753 5753 5754 5755 5756 5758 5759 5760 5762 5763 5764 5765 5767 5768 5769 5770 5771 5772 5772 5773 5774 5775 5776 5777 5778 5779 5781 5782 5784 5785 5786 5788 5789 5791 5792 5794 5796 5797 5799 5800 5801 5802
5746 5746 5747 5747 5748 5750 5751 5752 5754 5755 5756 5757 5758 5760 5761 5762 5763 5764 5764 5765 5766 5767 5767 5768 5769 5770 5771 5773 5774 5775 5777 5778 5779 5781 5783 5784 5786 5788 5789 5791 5792 5794 5795
5738 5739 5739 5740 5741 5742 5744 5745 5747 5748 5749 5750 5751 5752 5753 5754 5755 5756 5757 5757 5758 5758 5759 5760 5761 5761 5763 5764 5765 5766 5767 5769 5770 5772 5774 5775 5777 5779 5781 5782 5784 5785 5787
5730 5731 5732 5732 5733 5735 5736 5738 5739 5740 5741 5742 5743 5744 5745 5746 5747 5747 5748 5749 5749 5750 5750 5751 5751 5752 5753 5754 5755 5756 5757 5759 5760 5762 5764 5766 5768 5770 5771 5773 5774 5776 5778
5721 5722 5723 5724 5725 5727 5728 5729 5730 5731 5732 5733 5734 5735 5736 5737 5738 5739 5739 5740 5740 5741 5741 5741 5742 5742 5743 5743 5744 5745 5746 5748 5749 5751 5753 5755 5757 5759 5761 5763 5764 5766 5768
5712 5713 5714 5715 5716 5718 5719 5720 5721 5722 5723 5724 5725 5725 5726 5727 5728 5729 5729 5730 5730 5730 5731 5731 5731 5732 5732 5732 5732 5733 5734 5736 5738 5740 5742 5744 5746 5748 5750 5752 5753 5755 5757
5703 5704 5705 5706 5707 5708 5709 5710 5711 5712 5713 5714 5715 5716 5716 5717 5718 5719 5719 5719 5719 5719 5719 5719 5720 5719 5719 5719 5720 5721 5722 5724 5726 5728 5730 5732 5734 5736 5738 5740 5742 5744 5745
5693 5694 5695 5696 5697 5698 5699 5700 5701 5701 5702 5703 5704 5705 5705 5706 5707 5707 5708 5708 5708 5708 5707 5707 5707 5707 5707 5707 5708 5709 5710 5711 5713 5715 5717 5719 5721 5724 5726 5728 5730 5732 5733
5683 5684 5685 5685 5686 5687 5688 5689 5689 5690 5691 5692 5693 5693 5694 5694 5695 5695 5696 5696 5695 5695 5695 5695 5694 5694 5694 5695 5696 5696 5698 5699 5700 5702 5704 5706 5708 5711 5713 5714 5717 5719 5720
5672 5673 5674 5674 5675 5675 5676 5677 5677 5678 5679 5680 5681 5681 5682 5682 5683 5683 5683 5683 5683 5682 5682 5681 5681 5681 5681 5681 5682 5683 5684 5686 5687 5689 5691 5693 5695 5697 5699 5701 5703 5704 5706
5660 5661 5662 5662 5663 5664 5664 5665 5666 5667 5667 5668 5668 5668 5669 5669 5670 5670 5670 5670 5670 5669 5669 5668 5668 5667 5668 5668 5668 5668 5669 5670 5673 5676 5678 5679 5680 5682 5684 5686 5688 5690 5692
5648 5649 5650 5650 5651 5652 5652 5653 5654 5654 5655 5655 5655 5656 5656 5656 5657 5657 5657 5657 5657 5656 5656 5655 5654 5654 5654 5654 5654 5654 5655 5656 5657 5660 5663 5665 5666 5667 5669 5671 5673 5674 5676
5636 5637 5638 5639 5639 5640 5640 5640 5641 5641 5642 5642 5643 5643 5643 5643 5644 5644 5644 5643 5643 5643 5642 5641 5641 5640 5640 5640 5639 5639 5640 5641 5642 5644 5647 5649 5651 5652 5653 5655 5656 5658 5659